Watersmeet, MI

8:06 AM CST on February 20, 2017 (GMT -0600)
Kings Land O'Lakes

Weather History for KLNL - October, 2011

Change the Weather History Date:

Saturday, October 29, 2011

  Actual Average (KEGV) Record (KEGV)
Temperature  
Mean Temperature 32 °F -  
Max Temperature 41 °F 48 °F 62 °F (2004)
Min Temperature 24 °F 30 °F 17 °F (2012)
Degree Days  
Heating Degree Days 32    
Moisture  
Dew Point 29 °F    
Average Humidity 92    
Maximum Humidity 100    
Minimum Humidity 66    
Precipitation  
Precipitation 0.01 in - - ()
Sea Level Pressure  
Sea Level Pressure 30.00 in    
Wind  
Wind Speed 1 mph (West)    
Max Wind Speed 6 mph    
Max Gust Speed -    
Visibility 8 miles    
Events Fog    
Averages and records for this station are not official NWS values.
T = Trace of Precipitation, MM = Missing Value Source: NWS Daily Summary

Daily Weather History Graph

Daily Weather History Graph

Search for Another Location

Airport or City:

Trip Planner

Search our weather history database for the weather conditions in past years. The results will help you decide how hot, cold, wet, or windy it might be!

Date:

Astronomy

Oct. 29, 2011 Rise Set
Actual Time 7:33 AM CDT 5:47 PM CDT
Civil Twilight 7:01 AM CDT 6:18 PM CDT
Nautical Twilight 6:26 AM CDT 6:53 PM CDT
Astronomical Twilight 5:51 AM CDT 7:28 PM CDT
Moon 11:06 AM CDT (10/29) 7:59 PM CDT (10/29)
Length of Visible Light 11h 16m
Length of Day
10h 14m
Waxing Crescent, 12% of the Moon is Illuminated
Oct 29
Waxing Crescent
Nov 2
First Quarter
Nov 10
Full
Nov 18
Last Quarter
Nov 25
New

Hourly Weather History & Observations

Time (CDT) Temp. Windchill Dew Point Humidity Pressure Visibility Wind Dir Wind Speed Gust Speed Precip Events Conditions
12:15 AM 32.2 °F - 32.0 °F 99% 29.96 in 4.0 mi Calm Calm - N/A   Scattered Clouds
12:35 AM 31.1 °F - 30.9 °F 99% 29.96 in 1.5 mi Calm Calm - N/A   Mist
12:55 AM 30.4 °F - 30.4 °F 100% 29.96 in 0.5 mi Calm Calm - N/A Fog Light Freezing Fog
1:15 AM 30.0 °F - 29.8 °F 99% 29.96 in 0.5 mi Calm Calm - N/A Fog Light Freezing Fog
1:55 AM 30.4 °F - 30.0 °F 99% 29.96 in 0.2 mi Calm Calm - N/A Fog Light Freezing Fog
2:55 AM 28.6 °F - 28.2 °F 99% 29.96 in 0.5 mi Calm Calm - N/A Fog Light Freezing Fog
3:15 AM 28.4 °F - 27.9 °F 98% 29.96 in 0.2 mi Calm Calm - N/A Fog Light Freezing Fog
3:35 AM 28.2 °F - 27.5 °F 97% 29.96 in 0.8 mi Calm Calm - N/A   Overcast
3:55 AM 27.3 °F - 26.6 °F 97% 29.96 in 0.5 mi Calm Calm - N/A Fog Light Freezing Fog
4:15 AM 27.0 °F - 26.2 °F 97% 29.96 in 10.0 mi Calm Calm - N/A   Scattered Clouds
4:35 AM 26.6 °F - 25.9 °F 97% 29.96 in 5.0 mi Calm Calm - N/A   Clear
4:55 AM 25.7 °F - 24.8 °F 96% 29.97 in 10.0 mi Calm Calm - N/A   Clear
5:15 AM 25.2 °F - 24.3 °F 96% 29.97 in 10.0 mi Calm Calm - N/A   Scattered Clouds
5:35 AM 24.8 °F - 23.9 °F 96% 29.97 in 10.0 mi Calm Calm - N/A   Mostly Cloudy
5:55 AM 24.8 °F - 23.7 °F 96% 29.97 in 10.0 mi Calm Calm - N/A   Mostly Cloudy
6:15 AM 24.6 °F - 23.5 °F 96% 29.97 in 10.0 mi Calm Calm - N/A   Mostly Cloudy
6:35 AM 24.6 °F - 23.5 °F 96% 29.97 in 10.0 mi Calm Calm - N/A   Mostly Cloudy
6:55 AM 25.7 °F - 24.8 °F 96% 29.97 in 10.0 mi Calm Calm - N/A   Overcast
7:15 AM 26.6 °F - 25.7 °F 96% 29.97 in 10.0 mi Calm Calm - N/A   Overcast
7:55 AM 26.4 °F - 25.5 °F 96% 29.98 in 10.0 mi Calm Calm - N/A   Scattered Clouds
8:15 AM 25.5 °F 21.3 °F 24.6 °F 96% 29.99 in 10.0 mi West 3.5 mph - N/A   Scattered Clouds
8:35 AM 29.3 °F - 28.9 °F 99% 29.99 in 7.0 mi Calm Calm - N/A   Overcast
8:55 AM 31.3 °F - 30.9 °F 99% 30.00 in 7.0 mi Calm Calm - N/A   Overcast
9:15 AM 31.8 °F - 31.6 °F 99% 30.00 in 5.0 mi Calm Calm - N/A   Overcast
9:35 AM 32.2 °F 28.9 °F 32.0 °F 99% 30.00 in 7.0 mi West 3.5 mph - N/A   Overcast
9:55 AM 32.7 °F 29.6 °F 32.5 °F 99% 30.01 in 10.0 mi West 3.5 mph - N/A   Overcast
10:15 AM 32.9 °F 27.5 °F 32.9 °F 100% 30.01 in 10.0 mi West 5.8 mph - N/A   Overcast
10:35 AM 33.6 °F 29.4 °F 33.4 °F 99% 30.01 in 10.0 mi West 4.6 mph - N/A   Overcast
10:55 AM 34.0 °F - 33.8 °F 99% 30.01 in 10.0 mi Calm Calm - N/A   Mostly Cloudy
11:15 AM 35.2 °F 32.4 °F 35.1 °F 99% 30.01 in 10.0 mi West 3.5 mph - 0.01 in   Overcast
11:35 AM 35.6 °F 31.7 °F 35.6 °F 100% 30.02 in 10.0 mi SW 4.6 mph - 0.01 in   Overcast
11:55 AM 36.3 °F 32.5 °F 36.1 °F 99% 30.02 in 10.0 mi West 4.6 mph - 0.01 in   Mostly Cloudy
12:55 PM 37.4 °F 33.8 °F 34.5 °F 89% 30.02 in 10.0 mi WNW 4.6 mph - N/A   Overcast
1:15 PM 38.1 °F 35.7 °F 33.3 °F 83% 30.01 in 10.0 mi WNW 3.5 mph - N/A   Mostly Cloudy
1:35 PM 38.3 °F 34.8 °F 33.1 °F 81% 30.01 in 10.0 mi West 4.6 mph - N/A   Scattered Clouds
1:55 PM 39.2 °F 37.0 °F 33.1 °F 79% 30.01 in 10.0 mi WNW 3.5 mph - N/A   Mostly Cloudy
2:15 PM 39.4 °F - 33.1 °F 78% 30.02 in 10.0 mi Calm Calm - N/A   Overcast
2:35 PM 39.6 °F - 32.9 °F 77% 30.02 in 10.0 mi Calm Calm - N/A   Overcast
2:55 PM 39.9 °F - 32.9 °F 76% 30.01 in 10.0 mi Calm Calm - N/A   Overcast
3:35 PM 41.4 °F 37.6 °F 32.0 °F 69% 30.01 in 10.0 mi West 5.8 mph - N/A   Overcast
3:55 PM 41.4 °F 38.4 °F 30.9 °F 66% 30.02 in 10.0 mi WSW 4.6 mph - N/A   Mostly Cloudy
4:15 PM 40.3 °F 38.2 °F 31.1 °F 70% 30.02 in 10.0 mi SSW 3.5 mph - N/A   Scattered Clouds
4:35 PM 40.8 °F - 31.3 °F 69% 30.01 in 10.0 mi Calm Calm - N/A   Mostly Cloudy
4:55 PM 41.2 °F - 30.9 °F 67% 30.01 in 10.0 mi Calm Calm - N/A   Scattered Clouds
5:15 PM 40.3 °F - 31.5 °F 71% 30.01 in 10.0 mi Calm Calm - N/A   Scattered Clouds
5:35 PM 37.6 °F - 32.0 °F 80% 30.02 in 10.0 mi Calm Calm - N/A   Mostly Cloudy
5:55 PM 36.3 °F - 31.6 °F 83% 30.02 in 10.0 mi Calm Calm - N/A   Mostly Cloudy
6:15 PM 33.1 °F - 30.7 °F 91% 30.02 in 10.0 mi Calm Calm - N/A   Clear
6:35 PM 31.5 °F - 29.8 °F 94% 30.02 in 10.0 mi Calm Calm - N/A   Clear
7:15 PM 29.3 °F - 28.2 °F 96% 30.03 in 10.0 mi Calm Calm - N/A   Clear
7:35 PM 28.9 °F - 27.9 °F 96% 30.04 in 10.0 mi Calm Calm - N/A   Clear
7:55 PM 28.8 °F - 27.7 °F 96% 30.04 in 10.0 mi Calm Calm - N/A   Clear
8:15 PM 28.0 °F - 27.3 °F 97% 30.04 in 10.0 mi Calm Calm - N/A   Clear
8:35 PM 27.5 °F - 26.8 °F 97% 30.04 in 10.0 mi Calm Calm - N/A   Clear
8:55 PM 26.8 °F - 25.9 °F 96% 30.04 in 10.0 mi Calm Calm - N/A   Clear
9:15 PM 26.2 °F - 25.3 °F 96% 30.04 in 10.0 mi Calm Calm - N/A   Clear
9:35 PM 25.9 °F - 25.0 °F 96% 30.04 in 10.0 mi Calm Calm - N/A   Clear
9:55 PM 25.5 °F - 24.6 °F 96% 30.04 in 10.0 mi Calm Calm - N/A   Clear
10:15 PM 25.2 °F - 24.3 °F 96% 30.04 in 10.0 mi Calm Calm - N/A   Clear
10:35 PM 24.4 °F - 23.4 °F 96% 30.04 in 10.0 mi Calm Calm - N/A   Clear
10:55 PM 24.3 °F - 23.2 °F 96% 30.05 in 10.0 mi Calm Calm - N/A   Clear
11:15 PM 23.7 °F - 22.6 °F 96% 30.04 in 10.0 mi Calm Calm - N/A   Clear
11:35 PM 23.2 °F - 21.9 °F 95% 30.04 in 10.0 mi Calm Calm - N/A   Clear
11:55 PM 23.0 °F - 21.7 °F 95% 30.04 in 10.0 mi Calm Calm - N/A   Clear